Location: La Trinit�
(48.1620°N, 3.4512°W)
Time: 16:43:46
(UTC+00:00)

USA 215 - Pass Details

Date: 08 May 2021
Orbit: 1100 x 1107 km, 123.0° (Epoch: 22 June)

Event Time Altitude Azimuth Distance (km) Brightness Sun altitude
Rises 20:12:18 0° 67° (ENE) 3,921 5.8 -5.8°
Reaches altitude 10° 20:14:54 10° 61° (ENE) 2,963 5.3 -6.2°
Maximum altitude 20:20:58 42° 353° (N) 1,518 4.5 -7.0°
Drops below altitude 10° 20:27:01 10° 285° (WNW) 2,965 6.8 -7.8°
Sets 20:29:38 0° 279° (W) 3,923 7.4 -8.2°
